When you browse on this site, cookies collect data to enhance your experience and personalize the content and advertising you see.
Visit our Privacy Policy to learn more. By continuing to use the site, you agree to this use of cookies and data.
  • Em Portugal
  • Lista de países
  • Para 7 dias
  • Temperatura da água
  • Mapas de satélite
  • Mapa do tempo
  • Widgets de tempo
  • user-avatar
    Iniciar Sessão

    Previsão horária em Kavarna

    Hoje, 20 Novembro, Terça-feira

    Tempo Temperatura Precipitação Vento Pressão Humidade
    00:00 +1°C° 0 mm 6 m/s 764 mmHg 87%
    01:00 +1°C° 0 mm 6 m/s 764 mmHg 87%
    02:00 +1°C° 0 mm 5 m/s 764 mmHg 87%
    03:00 +1°C° 0 mm 5 m/s 765 mmHg 87%
    04:00 0°C° 0 mm 5 m/s 765 mmHg 86%
    05:00 0°C° 0 mm 5 m/s 765 mmHg 86%
    06:00 0°C° 0 mm 5 m/s 765 mmHg 86%
    07:00 0°C° 0 mm 5 m/s 766 mmHg 85%
    08:00 0°C° 0 mm 5 m/s 766 mmHg 84%
    09:00 +1°C° 0 mm 4 m/s 766 mmHg 79%
    10:00 +3°C° 0 mm 4 m/s 766 mmHg 73%
    11:00 +4°C° 0 mm 3 m/s 766 mmHg 68%
    12:00 +5°C° 0 mm 3 m/s 766 mmHg 66%
    13:00 +6°C° 0 mm 4 m/s 765 mmHg 65%
    14:00 +6°C° 0 mm 4 m/s 765 mmHg 63%
    15:00 +6°C° 0.1 mm 4 m/s 765 mmHg 67%
    16:00 +6°C° 0.1 mm 4 m/s 765 mmHg 71%
    17:00 +5°C° 0.1 mm 4 m/s 765 mmHg 75%
    18:00 +6°C° 0.1 mm 4 m/s 764 mmHg 77%
    19:00 +6°C° 0.1 mm 5 m/s 764 mmHg 79%
    20:00 +6°C° 0.1 mm 5 m/s 764 mmHg 81%
    21:00 +6°C° 0.6 mm 5 m/s 764 mmHg 83%
    22:00 +6°C° 0.6 mm 5 m/s 764 mmHg 86%
    23:00 +5°C° 0.6 mm 6 m/s 763 mmHg 88%

    Amanhã, 21 Novembro, Quarta-feira

    Tempo Temperatura Precipitação Vento Pressão Humidade
    00:00 +7°C° 1.1 mm 6 m/s 763 mmHg 89%
    01:00 +7°C° 1.1 mm 6 m/s 763 mmHg 91%
    02:00 +7°C° 1.1 mm 6 m/s 762 mmHg 92%
    03:00 +6°C° 0.9 mm 7 m/s 762 mmHg 92%
    04:00 +6°C° 0.9 mm 7 m/s 762 mmHg 93%
    05:00 +6°C° 0.9 mm 7 m/s 761 mmHg 93%
    06:00 +6°C° 0.9 mm 7 m/s 761 mmHg 93%
    07:00 +7°C° 0.9 mm 8 m/s 761 mmHg 93%
    08:00 +7°C° 0.9 mm 8 m/s 760 mmHg 93%
    09:00 +7°C° 1 mm 8 m/s 760 mmHg 93%
    10:00 +7°C° 1 mm 8 m/s 760 mmHg 92%
    11:00 +7°C° 1 mm 8 m/s 760 mmHg 92%
    12:00 +7°C° 1.2 mm 8 m/s 760 mmHg 91%
    13:00 +8°C° 1.2 mm 9 m/s 760 mmHg 91%
    14:00 +8°C° 1.2 mm 9 m/s 760 mmHg 90%
    15:00 +7°C° 0.8 mm 9 m/s 760 mmHg 89%
    16:00 +7°C° 0.8 mm 9 m/s 760 mmHg 88%
    17:00 +7°C° 0.8 mm 10 m/s 760 mmHg 87%
    18:00 +7°C° 0.6 mm 10 m/s 760 mmHg 87%
    19:00 +7°C° 0.6 mm 10 m/s 761 mmHg 86%
    20:00 +7°C° 0.6 mm 10 m/s 761 mmHg 86%
    21:00 +6°C° 0.3 mm 10 m/s 761 mmHg 85%
    22:00 +6°C° 0.3 mm 10 m/s 761 mmHg 85%
    23:00 +6°C° 0.3 mm 11 m/s 762 mmHg 85%

    Depois de amanhã, 22 Novembro, Quinta-feira

    Tempo Temperatura Precipitação Vento Pressão Humidade
    00:00 +5°C° 0.2 mm 10 m/s 762 mmHg 84%
    01:00 +5°C° 0.2 mm 10 m/s 762 mmHg 84%
    02:00 +5°C° 0.2 mm 10 m/s 763 mmHg 84%
    03:00 +3°C° 0.1 mm 10 m/s 763 mmHg 83%
    04:00 +3°C° 0.1 mm 10 m/s 763 mmHg 83%
    05:00 +3°C° 0.1 mm 10 m/s 763 mmHg 83%
    06:00 +2°C° 0.1 mm 9 m/s 764 mmHg 83%
    07:00 +2°C° 0.1 mm 9 m/s 765 mmHg 83%
    08:00 +2°C° 0.1 mm 9 m/s 765 mmHg 83%
    09:00 +2°C° 0 mm 9 m/s 765 mmHg 82%
    10:00 +2°C° 0 mm 9 m/s 766 mmHg 80%
    11:00 +2°C° 0 mm 9 m/s 766 mmHg 78%
    12:00 +4°C° 0 mm 8 m/s 766 mmHg 75%
    13:00 +4°C° 0 mm 8 m/s 766 mmHg 72%
    14:00 +4°C° 0 mm 8 m/s 766 mmHg 69%
    15:00 +4°C° 0 mm 7 m/s 766 mmHg 69%
    16:00 +3°C° 0 mm 7 m/s 767 mmHg 69%
    17:00 +3°C° 0 mm 7 m/s 767 mmHg 69%
    18:00 +2°C° 0 mm 6 m/s 767 mmHg 69%
    19:00 +2°C° 0 mm 6 m/s 767 mmHg 69%
    20:00 +1°C° 0 mm 6 m/s 768 mmHg 70%
    21:00 +1°C° 0 mm 6 m/s 768 mmHg 72%
    22:00 -1°C° 0 mm 6 m/s 768 mmHg 74%
    23:00 -1°C° 0 mm 6 m/s 768 mmHg 76%

    23 Novembro, Sexta-feira

    Tempo Temperatura Precipitação Vento Pressão Humidade
    00:00 -1°C° 0 mm 6 m/s 768 mmHg 77%
    01:00 -2°C° 0 mm 6 m/s 768 mmHg 78%
    02:00 -2°C° 0 mm 6 m/s 769 mmHg 80%
    03:00 -2°C° 0 mm 6 m/s 769 mmHg 80%
    04:00 -3°C° 0 mm 6 m/s 769 mmHg 80%
    05:00 -3°C° 0 mm 6 m/s 769 mmHg 81%
    06:00 -3°C° 0 mm 6 m/s 769 mmHg 80%
    07:00 -3°C° 0 mm 6 m/s 770 mmHg 80%
    08:00 -3°C° 0 mm 6 m/s 770 mmHg 79%
    09:00 -1°C° 0 mm 6 m/s 770 mmHg 73%
    10:00 +1°C° 0 mm 6 m/s 770 mmHg 67%
    11:00 +2°C° 0 mm 6 m/s 771 mmHg 61%
    12:00 +3°C° 0 mm 5 m/s 771 mmHg 59%
    13:00 +3°C° 0 mm 5 m/s 770 mmHg 57%
    14:00 +5°C° 0 mm 5 m/s 770 mmHg 55%
    15:00 +3°C° 0 mm 5 m/s 770 mmHg 57%
    16:00 +2°C° 0 mm 5 m/s 771 mmHg 60%
    17:00 +2°C° 0 mm 5 m/s 771 mmHg 62%
    18:00 +1°C° 0 mm 5 m/s 771 mmHg 64%
    19:00 +1°C° 0 mm 5 m/s 771 mmHg 65%
    20:00 0°C° 0 mm 4 m/s 771 mmHg 67%
    21:00 0°C° 0 mm 4 m/s 771 mmHg 68%
    22:00 0°C° 0 mm 4 m/s 771 mmHg 69%
    23:00 0°C° 0 mm 4 m/s 771 mmHg 70%

    24 Novembro, Sábado

    Tempo Temperatura Precipitação Vento Pressão Humidade
    00:00 0°C° 0 mm 4 m/s 771 mmHg 70%
    01:00 0°C° 0 mm 4 m/s 771 mmHg 71%
    02:00 0°C° 0 mm 4 m/s 771 mmHg 71%
    03:00 0°C° 0 mm 4 m/s 771 mmHg 71%
    04:00 -1°C° 0 mm 4 m/s 770 mmHg 71%
    05:00 -1°C° 0 mm 4 m/s 770 mmHg 71%
    06:00 -1°C° 0 mm 4 m/s 770 mmHg 70%
    07:00 0°C° 0 mm 4 m/s 770 mmHg 70%
    08:00 +1°C° 0 mm 3 m/s 770 mmHg 70%
    09:00 +2°C° 0 mm 3 m/s 770 mmHg 68%
    10:00 +4°C° 0 mm 3 m/s 770 mmHg 66%
    11:00 +6°C° 0 mm 2 m/s 770 mmHg 65%
    12:00 +7°C° 0 mm 2 m/s 769 mmHg 65%
    13:00 +7°C° 0 mm 2 m/s 769 mmHg 66%
    14:00 +8°C° 0 mm 2 m/s 768 mmHg 67%
    15:00 +7°C° 0 mm 2 m/s 768 mmHg 72%
    16:00 +6°C° 0 mm 2 m/s 768 mmHg 77%
    17:00 +6°C° 0 mm 2 m/s 768 mmHg 82%
    18:00 +6°C° 0 mm 1 m/s 768 mmHg 84%
    19:00 +6°C° 0 mm 1 m/s 768 mmHg 86%
    20:00 +5°C° 0 mm 0 m/s 768 mmHg 88%
    21:00 +6°C° 0 mm 1 m/s 767 mmHg 88%
    22:00 +6°C° 0 mm 1 m/s 767 mmHg 89%
    23:00 +6°C° 0 mm 1 m/s 767 mmHg 89%

    25 Novembro, Domingo

    Tempo Temperatura Precipitação Vento Pressão Humidade
    00:00 +6°C° 0 mm 1 m/s 767 mmHg 89%
    01:00 +5°C° 0 mm 2 m/s 766 mmHg 89%
    02:00 +5°C° 0 mm 2 m/s 766 mmHg 88%
    03:00 +5°C° 0 mm 2 m/s 766 mmHg 88%
    04:00 +4°C° 0 mm 3 m/s 765 mmHg 88%
    05:00 +4°C° 0 mm 3 m/s 765 mmHg 87%
    06:00 +4°C° 0 mm 3 m/s 765 mmHg 87%
    07:00 +4°C° 0 mm 3 m/s 765 mmHg 86%
    08:00 +5°C° 0 mm 3 m/s 765 mmHg 86%
    09:00 +6°C° 0 mm 4 m/s 765 mmHg 79%
    10:00 +7°C° 0 mm 5 m/s 764 mmHg 72%
    11:00 +9°C° 0 mm 5 m/s 764 mmHg 65%
    12:00 +9°C° 0 mm 5 m/s 764 mmHg 64%
    13:00 +10°C° 0 mm 5 m/s 763 mmHg 62%
    14:00 +10°C° 0 mm 5 m/s 763 mmHg 61%
    15:00 +9°C° 0 mm 5 m/s 763 mmHg 66%
    16:00 +8°C° 0 mm 5 m/s 762 mmHg 71%
    17:00 +8°C° 0 mm 5 m/s 762 mmHg 76%
    18:00 +8°C° 0 mm 5 m/s 762 mmHg 77%
    19:00 +8°C° 0 mm 5 m/s 762 mmHg 79%
    20:00 +8°C° 0 mm 5 m/s 762 mmHg 80%
    21:00 +7°C° 0 mm 5 m/s 762 mmHg 81%
    22:00 +7°C° 0 mm 5 m/s 761 mmHg 83%
    23:00 +7°C° 0 mm 5 m/s 761 mmHg 84%
    Mostrar mais